Hourly Weather Roundup
Issued by NWS Central Illinois

Home | Current Version | Previous Version | Text Only | Print | Product List | Glossary On
Versions: 1 2 3 4 5 6 7 8 9 10 11 12 13 14 15 16 17 18 19 20 21 22 23 24 25 26 27 28 29 30 31 32 33 34 35 36 37 38 39 40 41 42 43 44 45 46 47 48 49 50
015
NZUS43 KILX 220810
HWRILX

Area Weather Roundup
National Weather Service Lincoln IL
300 AM CDT FRI SEP 22 2017

NOTE:  "FAIR" indicates few or no clouds below 12,000 feet, with
       no sigificant weather and/or obstructions to visibility.


CITY           SKY/WX    TMP DP  RH WIND       PRES   REMARKS
Bloomington    CLOUDY    70  66  87 S8        30.06S
Champaign      PTCLDY    70  65  84 S5        30.05
Danville       CLEAR     66  65  97 E3        30.04S
Decatur        PTCLDY    71  65  81 S6        30.04F
Effingham      PTCLDY    67  66  97 E3        30.06S
Flora          CLEAR     69  67  93 CALM      30.05S
Galesburg      CLEAR     71  67  88 S3        30.02R
Jacksonville   CLEAR     74  68  79 S7        30.02S
Lacon          CLEAR     72  68  87 S5        30.01S
Lawrenceville  PTCLDY    70  69  97 CALM      30.05F
Litchfield     CLEAR     70  67  90 SE3       30.04S
$$


CITY           SKY/WX    TMP DP  RH WIND       PRES   REMARKS
Lincoln        CLEAR     69  67  94 CALM      30.04R
Macomb         CLEAR     70  68  94 S6        30.03S
Mattoon        PTCLDY    72  69  90 S5        30.05S
Mt Carmel AP   CLEAR     68  65  91 CALM      30.05S
Olney-Noble AP PTCLDY    69  67  92 CALM      30.05S
Paris AP       CLOUDY    71  67  89 SE3       30.07S
Peoria         CLEAR     74  68  81 S7        30.02S
Pontiac        PTCLDY    68  67  98 CALM      30.04S
Rantoul        CLOUDY    71  68  90 CALM      30.06S
Robinson       PTCLDY    66  66  99 CALM      30.06S
Springfield    CLEAR     75  69  81 S6        30.03S
Taylorville    PTCLDY    69  66  89 S5        30.04S
$$

...REGIONAL REPORTS...


CITY           SKY/WX    TMP DP  RH WIND       PRES   REMARKS
Chicago O`Hare CLOUDY    77  68  73 S5        30.03R
Kankakee       PTCLDY    68  67  96 CALM      30.05S
Moline         CLEAR     76  68  76 S7        29.99R
Mount Sterling CLEAR     69  67  93 S5        30.01S
Mount Vernon     N/A     64  64 100 CALM      30.05S
Pittsfield     CLEAR     72  69  90 S5        30.03S
Quincy         CLEAR     76  68  76 S7        30.00S
Rockford       PTCLDY    70  67  90 S3        30.03S
$$


CITY           SKY/WX    TMP DP  RH WIND       PRES   REMARKS
Burlington     CLEAR     76  69  79 S9        29.99R
Cedar Rapids   CLEAR     75  69  81 S9        29.96R
Des Moines     PTCLDY    78  70  76 S10       29.89S HX  80
Kirksville     CLEAR     74  68  81 S8        29.99R
Ottumwa        CLEAR     76  70  82 S9        29.95R
St Louis       CLEAR     78  70  76 S8        30.02F HX  80
$$


CITY           SKY/WX    TMP DP  RH WIND       PRES   REMARKS
Terre Haute    CLOUDY    71  67  87 CALM      30.06S
Evansville     CLEAR     71  69  93 CALM      30.05F FOG
Indianapolis   PTCLDY    74  69  85 CALM      30.07S
Lafayette      CLEAR     68  68 100 CALM      30.05F
Madison        CLEAR     71  67  87 S6        29.99F
Milwaukee      CLEAR     69  67  93 S3        30.01F FOG
$$






USA.gov is the U.S. government's official web portal to all federal, state and local government web resources and services.